When you browse on this site, cookies collect data to enhance your experience and personalize the content and advertising you see.
Visit our Privacy Policy to learn more. By continuing to use the site, you agree to this use of cookies and data.
  • In Romania
  • List of Countries
  • For 7 days
  • Water Temperature
  • Satellite Maps
  • Weather Map
  • Weather Widgets
  • user-avatar
    Login

    Hourly Weather Newark

    Today, 15 December, Saturday

    Time Temperature Precipitation Wind Pressure Humidity
    00:00 +8°C° 0.4 mm 1 mps 766 mmHg 98%
    01:00 +8°C° 0 mm 1 mps 766 mmHg 97%
    02:00 +8°C° 0.8 mm 1 mps 766 mmHg 97%
    03:00 +8°C° 0.8 mm 1 mps 765 mmHg 97%
    04:00 +7°C° 0.8 mm 0 mps 765 mmHg 97%
    05:00 +8°C° 0.1 mm 1 mps 765 mmHg 97%
    06:00 +8°C° 0.1 mm 1 mps 765 mmHg 97%
    07:00 +8°C° 0 mm 1 mps 764 mmHg 97%
    08:00 +8°C° 0.1 mm 2 mps 764 mmHg 97%
    09:00 +8°C° 0.1 mm 2 mps 764 mmHg 96%
    10:00 +8°C° 0.1 mm 2 mps 764 mmHg 96%
    11:00 +9°C° 0.1 mm 3 mps 764 mmHg 93%
    12:00 +9°C° 0.1 mm 3 mps 763 mmHg 90%
    13:00 +9°C° 0.1 mm 3 mps 763 mmHg 87%
    14:00 +9°C° 0.1 mm 3 mps 763 mmHg 85%
    15:00 +8°C° 0.1 mm 4 mps 762 mmHg 83%
    16:00 +8°C° 0.1 mm 4 mps 762 mmHg 81%
    17:00 +8°C° 0.1 mm 4 mps 762 mmHg 77%
    18:00 +8°C° 0.1 mm 3 mps 763 mmHg 74%
    19:00 +8°C° 0.1 mm 3 mps 763 mmHg 70%
    20:00 +7°C° 0.2 mm 4 mps 763 mmHg 70%
    21:00 +6°C° 0.2 mm 5 mps 763 mmHg 71%
    22:00 +5°C° 0.2 mm 6 mps 763 mmHg 71%
    23:00 +5°C° 0.1 mm 6 mps 763 mmHg 68%

    Tomorrow, 16 December, Sunday

    Time Temperature Precipitation Wind Pressure Humidity
    00:00 +4°C° 0.1 mm 7 mps 763 mmHg 65%
    01:00 +4°C° 0.1 mm 7 mps 762 mmHg 62%
    02:00 +3°C° 1.7 mm 7 mps 762 mmHg 69%
    03:00 +3°C° 1.7 mm 7 mps 762 mmHg 76%
    04:00 +2°C° 1.7 mm 8 mps 761 mmHg 83%
    05:00 +2°C° 5.3 mm 7 mps 761 mmHg 84%
    06:00 +2°C° 5.3 mm 7 mps 761 mmHg 85%
    07:00 +2°C° 5.3 mm 7 mps 761 mmHg 86%
    08:00 +2°C° 1.2 mm 7 mps 761 mmHg 85%
    09:00 +1°C° 1.2 mm 8 mps 761 mmHg 83%
    10:00 +1°C° 1.2 mm 8 mps 760 mmHg 82%
    11:00 +1°C° 1.1 mm 8 mps 759 mmHg 83%
    12:00 +2°C° 1.1 mm 7 mps 758 mmHg 84%
    13:00 +3°C° 1.1 mm 7 mps 757 mmHg 85%
    14:00 +3°C° 1.3 mm 7 mps 757 mmHg 85%
    15:00 +3°C° 1.3 mm 7 mps 756 mmHg 86%
    16:00 +2°C° 1.3 mm 6 mps 756 mmHg 86%
    17:00 +2°C° 1.1 mm 6 mps 756 mmHg 86%
    18:00 +2°C° 1.1 mm 7 mps 756 mmHg 85%
    19:00 +2°C° 1.1 mm 7 mps 756 mmHg 85%
    20:00 +2°C° 0.9 mm 7 mps 756 mmHg 85%
    21:00 +2°C° 0.9 mm 7 mps 755 mmHg 84%
    22:00 +2°C° 0.9 mm 7 mps 755 mmHg 84%
    23:00 +1°C° 0 mm 6 mps 755 mmHg 84%

    Day after tomorrow, 17 December, Monday

    Time Temperature Precipitation Wind Pressure Humidity
    00:00 +1°C° 0 mm 5 mps 755 mmHg 84%
    01:00 +1°C° 0 mm 5 mps 755 mmHg 84%
    02:00 +1°C° 0 mm 4 mps 755 mmHg 84%
    03:00 +1°C° 0 mm 4 mps 755 mmHg 84%
    04:00 +1°C° 0 mm 4 mps 755 mmHg 83%
    05:00 +2°C° 0 mm 3 mps 755 mmHg 84%
    06:00 +1°C° 0 mm 3 mps 755 mmHg 85%
    07:00 +1°C° 0 mm 3 mps 755 mmHg 86%
    08:00 +1°C° 0 mm 4 mps 754 mmHg 81%
    09:00 +3°C° 0 mm 4 mps 754 mmHg 75%
    10:00 +4°C° 0 mm 4 mps 754 mmHg 70%
    11:00 +3°C° 0 mm 5 mps 753 mmHg 67%
    12:00 +5°C° 0 mm 5 mps 753 mmHg 64%
    13:00 +5°C° 0 mm 6 mps 752 mmHg 62%
    14:00 +4°C° 0 mm 6 mps 752 mmHg 61%
    15:00 +3°C° 0 mm 7 mps 752 mmHg 60%
    16:00 +2°C° 0 mm 8 mps 753 mmHg 59%
    17:00 +1°C° 0 mm 8 mps 753 mmHg 60%
    18:00 0°C° 0 mm 8 mps 754 mmHg 61%
    19:00 -1°C° 0 mm 8 mps 754 mmHg 63%
    20:00 -1°C° 0 mm 8 mps 755 mmHg 62%
    21:00 -2°C° 0 mm 8 mps 755 mmHg 62%
    22:00 -4°C° 0 mm 8 mps 756 mmHg 62%
    23:00 -4°C° 0 mm 8 mps 756 mmHg 61%

    18 December, Tuesday

    Time Temperature Precipitation Wind Pressure Humidity
    00:00 -4°C° 0 mm 8 mps 756 mmHg 60%
    01:00 -5°C° 0 mm 8 mps 757 mmHg 59%
    02:00 -5°C° 0 mm 8 mps 757 mmHg 59%
    03:00 -4°C° 0 mm 7 mps 758 mmHg 58%
    04:00 -6°C° 0 mm 7 mps 758 mmHg 57%
    05:00 -6°C° 0 mm 7 mps 759 mmHg 57%
    06:00 -6°C° 0 mm 7 mps 759 mmHg 57%
    07:00 -6°C° 0 mm 7 mps 760 mmHg 57%
    08:00 -4°C° 0 mm 7 mps 761 mmHg 55%
    09:00 -3°C° 0 mm 7 mps 761 mmHg 53%
    10:00 -3°C° 0 mm 7 mps 761 mmHg 50%
    11:00 -2°C° 0 mm 7 mps 761 mmHg 49%
    12:00 -2°C° 0 mm 7 mps 761 mmHg 47%
    13:00 -1°C° 0 mm 7 mps 761 mmHg 45%
    14:00 -1°C° 0 mm 7 mps 761 mmHg 47%
    15:00 -2°C° 0 mm 6 mps 762 mmHg 49%
    16:00 -2°C° 0 mm 6 mps 762 mmHg 51%
    17:00 -3°C° 0 mm 6 mps 763 mmHg 53%
    18:00 -2°C° 0 mm 5 mps 763 mmHg 56%
    19:00 -4°C° 0 mm 5 mps 764 mmHg 58%
    20:00 -4°C° 0 mm 5 mps 764 mmHg 59%
    21:00 -3°C° 0 mm 4 mps 764 mmHg 59%
    22:00 -3°C° 0 mm 4 mps 764 mmHg 60%
    23:00 -3°C° 0 mm 4 mps 764 mmHg 61%

    19 December, Wednesday

    Time Temperature Precipitation Wind Pressure Humidity
    00:00 -4°C° 0 mm 4 mps 764 mmHg 62%
    01:00 -4°C° 0 mm 4 mps 764 mmHg 62%
    02:00 -4°C° 0 mm 3 mps 764 mmHg 63%
    03:00 -4°C° 0 mm 3 mps 764 mmHg 64%
    04:00 -4°C° 0 mm 3 mps 764 mmHg 65%
    05:00 -4°C° 0 mm 3 mps 764 mmHg 65%
    06:00 -4°C° 0 mm 3 mps 764 mmHg 65%
    07:00 -3°C° 0 mm 2 mps 764 mmHg 65%
    08:00 -1°C° 0 mm 3 mps 764 mmHg 61%
    09:00 0°C° 0 mm 3 mps 764 mmHg 57%
    10:00 +1°C° 0 mm 3 mps 764 mmHg 53%
    11:00 +2°C° 0 mm 3 mps 764 mmHg 50%
    12:00 +3°C° 0 mm 3 mps 763 mmHg 47%
    13:00 +4°C° 0 mm 3 mps 762 mmHg 45%
    14:00 +4°C° 0 mm 3 mps 762 mmHg 48%
    15:00 +4°C° 0 mm 3 mps 762 mmHg 52%
    16:00 +3°C° 0 mm 3 mps 762 mmHg 56%
    17:00 +3°C° 0 mm 3 mps 762 mmHg 60%
    18:00 +2°C° 0 mm 3 mps 762 mmHg 64%
    19:00 +2°C° 0 mm 3 mps 762 mmHg 69%
    20:00 +1°C° 0 mm 3 mps 762 mmHg 73%
    21:00 +1°C° 0 mm 3 mps 762 mmHg 78%
    22:00 +1°C° 0 mm 3 mps 762 mmHg 82%
    23:00 0°C° 0 mm 3 mps 762 mmHg 84%

    20 December, Thursday

    Time Temperature Precipitation Wind Pressure Humidity
    00:00 0°C° 0 mm 3 mps 761 mmHg 86%
    01:00 0°C° 0 mm 3 mps 761 mmHg 87%
    02:00 +1°C° 0 mm 2 mps 761 mmHg 88%
    03:00 +1°C° 0 mm 2 mps 761 mmHg 89%
    04:00 +1°C° 0 mm 2 mps 761 mmHg 90%
    05:00 +1°C° 0 mm 2 mps 761 mmHg 90%
    06:00 +1°C° 0 mm 2 mps 761 mmHg 91%
    07:00 +1°C° 0 mm 2 mps 762 mmHg 91%
    08:00 +2°C° 0 mm 2 mps 762 mmHg 88%
    09:00 +3°C° 0 mm 2 mps 762 mmHg 84%
    10:00 +4°C° 0 mm 2 mps 762 mmHg 80%
    11:00 +5°C° 0 mm 2 mps 761 mmHg 77%
    12:00 +6°C° 0 mm 2 mps 761 mmHg 74%
    13:00 +7°C° 0 mm 2 mps 760 mmHg 71%
    14:00 +7°C° 0 mm 2 mps 760 mmHg 75%
    15:00 +7°C° 0 mm 1 mps 760 mmHg 79%
    16:00 +7°C° 0 mm 1 mps 760 mmHg 83%
    17:00 +6°C° 0.2 mm 2 mps 759 mmHg 86%
    18:00 +6°C° 0.2 mm 2 mps 759 mmHg 88%
    19:00 +5°C° 0.2 mm 3 mps 759 mmHg 91%
    20:00 +7°C° 0.9 mm 3 mps 758 mmHg 93%
    21:00 +6°C° 0.9 mm 4 mps 757 mmHg 96%
    22:00 +7°C° 0.9 mm 4 mps 757 mmHg 98%
    23:00 +8°C° 2.7 mm 4 mps 756 mmHg 98%
    Show more